DW7401 Weather Reports


time (UTC)temp
C
wind
direction
speed
KPH
gust
KPH
rain 1hr
cm
rain 24hr
cm
rain mn
cm
humidity
%
barometer
mb
20260506163022 14 306 0.0 0.0 0.00 0.00 0.00 85 1020.0
20260506161518 14 218 0.0 0.0 0.00 0.00 0.00 86 1020.0
20260506160015 14 296 0.0 0.0 0.00 0.00 0.00 87 1020.0
20260506154512 13 293 0.0 0.0 0.00 0.00 0.00 88 1020.0
20260506153019 13 225 0.0 0.0 0.00 0.00 0.00 88 1020.0
20260506151509 13 225 0.0 0.0 0.00 0.00 0.00 89 1019.9
20260506150006 12 222 0.0 0.0 0.00 0.00 0.00 89 1019.9
20260506144513 12 222 0.0 0.0 0.00 0.00 0.00 89 1020.0
20260506143003 12 222 0.0 0.0 0.00 0.00 0.00 90 1019.8
20260506141501 12 222 0.0 0.0 0.00 0.00 0.00 90 1019.7
20260506140107 11 222 0.0 0.0 0.00 0.00 0.00 91 1019.6
20260506134558 11 223 0.0 0.0 0.00 0.00 0.00 91 1019.4
20260506133058 11 222 0.0 0.0 0.00 0.00 0.00 91 1019.5
20260506131557 11 222 0.0 0.0 0.00 0.00 0.00 91 1019.4
20260506130157 11 222 0.0 0.0 0.00 0.00 0.00 92 1019.3
20260506124555 11 222 0.0 0.0 0.00 0.00 0.00 92 1019.3
20260506123054 11 222 0.0 0.0 0.00 0.00 0.00 92 1019.2
20260506121556 11 222 0.0 0.0 0.00 0.00 0.00 92 1019.1
20260506120054 11 222 0.0 0.0 0.00 0.00 0.00 92 1019.0
20260506114555 11 223 0.0 0.0 0.00 0.00 0.00 92 1019.1
20260506113051 11 222 0.0 0.0 0.00 0.00 0.00 92 1019.0
20260506111551 11 222 0.0 0.0 0.00 0.00 0.00 92 1018.9
20260506110049 11 222 0.0 0.0 0.00 0.00 0.00 92 1018.9
20260506104550 11 222 0.0 0.0 0.00 0.00 0.00 92 1018.7
20260506103053 11 222 0.0 0.0 0.00 0.00 0.00 92 1018.6
20260506101545 11 222 0.0 0.0 0.00 0.00 0.00 92 1018.5
20260506100045 11 222 0.0 0.0 0.00 0.00 0.00 92 1018.4
20260506094544 11 223 0.0 0.0 0.00 0.00 0.00 92 1018.4
20260506093043 11 222 0.0 0.0 0.00 0.00 0.00 91 1018.4
20260506091551 11 222 0.0 0.0 0.00 0.00 0.00 91 1018.4
20260506090045 11 222 0.0 0.0 0.00 0.00 0.00 91 1018.4
20260506084547 11 222 0.0 0.0 0.00 0.00 0.00 91 1018.4
20260506083040 11 222 0.0 0.0 0.00 0.00 0.00 91 1018.4
20260506081539 11 223 0.0 0.0 0.00 0.00 0.00 90 1018.4
20260506073034 12 222 0.0 0.0 0.00 0.08 0.00 90 1018.4
20260506071532 12 218 0.0 0.0 0.00 0.08 0.00 89 1018.2
20260506061525 12 310 1.6 8.0 0.00 0.15 0.08 89 1017.6
20260506044522 12 200 0.0 0.0 0.00 0.46 0.08 88 1016.9
20260506043016 12 200 0.0 0.0 0.00 0.46 0.08 88 1016.8
20260506041514 12 200 0.0 0.0 0.00 0.46 0.08 88 1016.6
20260506040021 13 200 0.0 0.0 0.00 0.46 0.08 87 1016.3
20260506034519 13 200 0.0 0.0 0.00 0.76 0.08 87 1016.3
20260506033110 13 199 0.0 0.0 0.00 0.76 0.08 86 1016.2
20260506031509 13 200 0.0 0.0 0.00 0.76 0.08 85 1016.0
20260506030025 13 200 0.0 0.0 0.00 0.76 0.08 85 1015.7
20260506024513 13 129 0.0 0.0 0.00 1.07 0.08 84 1015.6
20260506023011 14 150 0.0 1.6 0.00 1.07 0.08 83 1015.4
20260506021504 14 98 0.0 1.6 0.00 1.07 0.08 82 1015.3
20260506020003 15 110 0.0 3.2 0.00 1.07 0.08 81 1015.1
20260506014503 15 67 0.0 0.0 0.00 1.30 0.08 81 1015.3
20260506013004 15 158 0.0 1.6 0.00 1.30 0.08 81 1015.3
20260506011502 15 173 0.0 0.0 0.00 1.30 0.08 82 1015.3
20260506010002 14 128 0.0 1.6 0.00 1.30 0.08 82 1015.3
20260506004601 15 150 0.0 1.6 0.00 1.52 0.08 82 1015.1
20260506003101 14 61 0.0 0.0 0.00 1.52 0.08 82 1015.0
20260506001600 14 191 0.0 0.0 0.00 1.52 0.08 83 1015.1
20260505234559 14 224 0.0 3.2 0.00 1.91 0.08 81 1015.0
20260505233102 14 214 0.0 3.2 0.00 1.91 0.08 81 1014.9
20260505231558 14 183 0.0 3.2 0.00 1.91 0.08 81 1014.9
20260505230105 14 215 0.0 0.0 0.00 1.91 0.08 80 1015.0
20260505224556 15 215 0.0 3.2 0.00 2.06 0.08 80 1014.9
20260505223108 15 214 0.0 6.4 0.00 2.06 0.08 79 1015.0
20260505221555 15 112 0.0 3.2 0.00 2.06 0.08 80 1015.1
20260505220054 15 153 0.0 8.0 0.00 2.06 0.08 80 1015.2
20260505214554 15 148 0.0 4.8 0.00 2.21 0.08 81 1015.3
20260505213059 15 308 0.0 6.4 0.00 2.21 0.08 79 1015.3
20260505211550 15 252 0.0 6.4 0.00 2.21 0.08 81 1015.4
20260505210049 14 295 1.6 9.7 0.00 2.21 0.08 83 1015.3
20260505204548 14 210 3.2 8.0 0.00 2.24 0.08 82 1015.3
20260505203052 14 218 0.0 8.0 0.00 2.24 0.08 84 1015.3
20260505201544 13 218 1.6 8.0 0.00 2.24 0.08 85 1015.3
20260505200042 13 208 1.6 9.7 0.00 2.24 0.08 87 1015.4
20260505194547 12 210 1.6 8.0 0.00 2.34 0.08 87 1015.5
20260505193039 13 221 1.6 6.4 0.00 2.34 0.08 89 1015.4
20260505191538 12 212 1.6 6.4 0.00 2.34 0.08 90 1015.4
20260505190037 12 239 0.0 8.0 0.00 2.34 0.08 91 1015.4
20260505184535 12 236 3.2 9.7 0.00 2.36 0.08 92 1015.4
20260505183034 13 280 0.0 3.2 0.00 2.36 0.08 94 1015.3
20260505181532 12 201 0.0 1.6 0.00 2.36 0.08 93 1015.2
20260505180030 12 149 0.0 0.0 0.00 2.36 0.08 94 1015.1
20260505174529 12 72 0.0 0.0 0.00 2.39 0.08 94 1015.0
20260505173039 11 221 0.0 4.8 0.00 2.39 0.08 94 1014.9
20260505171524 11 208 0.0 1.6 0.00 2.39 0.08 94 1015.0
20260505170027 11 206 0.0 0.0 0.00 2.39 0.08 94 1015.1
20260505164542 10 198 0.0 4.8 0.00 2.49 0.08 94 1015.1